Погода в Дрогичине

Беларусь     52°11′07″N   25°09′36″E
темп.,
°C
ветер,
м/с
пор.,
м/с
влажн.,
%
обл.,
%
осадки,
мм/ч
давл.,
гПа
погр.,
м
23 апреля, пт
пт2300:00+3зюз49782 0.0 1015181
03:00+2зюз512830 0.0 1015358
06:00+1зюз411851 0.0 1016324
09:00+4з610665 0.0 1017867
12:00+6зсз685897 0.1 10171593
15:00+8з7105275 0.9 10171953
18:00+5з688084 0.8 1017601
21:00+3сз4107318 1.4 1018262
24 апреля, сб
сб2400:000зсз410810 0.0 1019230
03:00−1з410825 0.0 1020229
06:00−1з5118187 0.0 1020290
09:00+3зсз69600 0.0 10201024
12:00+7зсз6939100 0.0 10202795
15:00+8зсз6837100 0.0 10192714
18:00+7сз685497 0.2 10191530
21:00+3сз337642 0.3 102048
25 апреля, вс
вс2500:00+1зсз4787100 0.1 1019206
03:000зсз3598100 1.4 1019171
06:00−2зсз38945 0.0 1019222
09:00+1зсз58765 0.0 1020644
12:00+4зсз565999 0.2 10201468
15:00+6з6852100 0.5 10191891
18:00+6з785887 0.2 10181432
21:00+2зюз477472 0.3 1018130
26 апреля, пн
пн2600:000з358670 0.1 101889
03:00−1зсз358896 0.1 1018107
06:00−2зсз37915 0.0 1018156
09:00+3зсз57645 0.0 1018803
12:00+6з5744100 0.1 10172066
15:00+8з5641100 0.1 10162138
18:00+7з454791 0.1 10141530
21:00+4зюз2364100 0.1 101448
27 апреля, вт
вт2700:00+2зюз3484100 0.1 101467
03:000зсз22932 0.2 101420
06:00−1сз22925 0.0 101530
09:00+4сз23700 0.0 1015407
12:00+8з22485 0.0 10151382
15:00+10з22445 0.0 10131563
18:00+10юз124591 0.0 10131541
21:00+6в3360100 0.0 101322